www.pogodaiklimat.ru

Погода и климат >> Архив погоды >> Аргентина >> San Miguel de Tucuman


ПОГОДА в San Miguel de Tucuman

  • Прогноз погоды в San Miguel de Tucuman
  • Монитор погоды в San Miguel de Tucuman
  • Климат города

АРХИВ ПОГОДЫ в San Miguel de Tucuman

Время (UTC), дата Ветер
(напр.,м/с)
 
Видим.   Явления Облачность Т
(С)
Тd
(С)
f
(%)
Тe
(С)
Тes
(С)
Комфортность P
(гПа)
Po
(гПа)
Тmin
(С)
Tmax
(С)
R
(мм)
R24
(мм)
S
(см)
06 17.05 штиль 0 5000 м в посл. час морось туман 10/10 150 м
[Frnb]
+14.8 +13.8 94 +14 +14 1012.2 960.6 0.5
09 17.05 штиль 0 2000 м дымка 10/10 150 м
[Frnb]
+14.6 +13.6 94 +14 +14 1010.9 959.3
12 17.05 штиль 0 1500 м дымка туман 10/10 60 м
[Frnb]
+14.9 +13.9 94 +15 +15 1011.3 959.6 +14.3 +15.6 0.6
15 17.05 ЮВ 4 8000 м дымка туман 8/8 600 м
[Cu hum]
+18.2 +14.7 80 +18 +20 1010.0 958.6
18 17.05 ЮЗ 2 10 км 10/10 600 м
[Cu hum]
+19.2 +14.7 75 +21 +21 комфорт 1006.6 955.4
21 17.05 В 3 6000 м слабый дождь туман 10/10 900 м
[Sc]
+18.0 +15.0 83 +18 +18 1007.1 955.8
00 18.05 штиль 0 8000 м дымка {дождь} 10/10 900 м
[Sc]
+17.2 +15.5 90 +17 +17 1008.4 957.0 +14.9 +19.6 0.0
03 18.05 штиль 0 8000 м дымка 10/10 900 м
[Sc]
+16.6 +15.3 92 +16 +16 1008.0 956.8
06 18.05 штиль 0 6000 м дымка 10/10 600 м
[St]
+16.0 +14.8 93 +16 +16 1000.6 955.4
09 18.05 штиль 0 5000 м дымка 10/10 600 м
[St]
+16.0 +15.0 94 +16 +16 1006.3 955.0
12 18.05 Ю 3 5000 м дымка 10/10 120 м
[Frnb]
+15.8 +14.8 94 +15 +15 1007.5 956.2 +15.0 +17.2 0.0
15 18.05 штиль 0 8000 м дымка 8/4 450 м
[Frnb Ac trans]
+19.1 +14.6 75 +20 +24 1006.1 955.0
18 18.05 ЮВ 4 12 км 9/9 900 м
[Cu Sc]
+20.4 +13.7 65 +23 +23 комфорт 1003.4 952.6
21 18.05 штиль 0 12 км 6/6 1200 м
[Sc]
+19.6 +14.6 73 +21 +21 комфорт 1005.2 954.2
00 19.05 З 2 12 км ясно +16.4 +14.0 86 +16 +16 1007.9 956.5 +15.8 +20.8
03 19.05 СЗ 4 10 км 3/3 1200 м
[Sc]
+14.1 +12.1 88 +13 +13 1009.1 957.7
06 19.05 ЮЗ 5 10 км 9/9 900 м
[Sc]
+14.5 +10.6 77 +13 +13 1011.1 959.8
09 19.05 штиль 0 10 км 9/8 1200 м
[Sc Ac As]
+13.4 +10.0 80 +13 +13 1012.1 960.6
12 19.05 В 3 12 км 9/9 1050 м
[Sc]
+12.4 +8.1 75 +11 +11 1014.5 962.5 +12.2 +16.4
15 19.05 СВ 3 12 км 9/9 600 м
[Cu Sc]
+14.6 +5.7 55 +14 +15 1015.1 963.0
18 19.05 В 2 12 км 9/9 600 м
[Cu Sc]
+16.2 +6.8 54 +16 +17 1012.4 960.6
21 19.05 С 1 12 км 9/5 1350 м
[Sc Ac trans]
+15.5 +9.3 67 +16 +16 1012.7 960.8
00 20.05 СЗ 3 12 км 6/4 1350 м
[Sc Ac trans]
+14.0 +9.5 74 +13 +13 1014.4 962.2 +12.4 +16.2
03 20.05 СЗ 3 12 км ясно +11.2 +10.4 95 +9 +9 1015.1 962.8
06 20.05 С 3 12 км ясно +8.0 +7.6 97 +6 +15 опасность
простуды
1014.5 962.2
09 20.05 В 2 12 км ясно +8.0 +5.9 87 +6 +6 1014.0 961.4
12 20.05 СЗ 2 15 км ясно +8.9 +6.2 83 +7 +8 1015.5 962.9 +7.2 +14.0
15 20.05 СВ 3 15 км ясно +18.0 +6.3 46 +18 +26 1014.1 962.1
18 20.05 штиль 0 12 км ясно +21.9 +8.3 42 +23 +34 комфорт 1011.3 959.8
21 20.05 В 3 15 км 1/0
[Cs]
+20.7 +9.0 47 +23 +23 комфорт 1011.9 960.0
00 21.05 Ю 3 15 км ясно +13.5 +9.5 77 +12 +12 1014.9 962.2 +8.9 +21.9
03 21.05 З 3 15 км ясно +10.2 +7.8 85 +8 +8 1014.5 962.4
06 21.05 С 3 15 км ясно +9.2 +6.7 84 +7 +7 1014.2 962.4
09 21.05 З 3 15 км ясно +8.2 +5.6 84 +5 +5 1014.6 962.6
12 21.05 З 5 15 км ясно +9.6 +6.0 78 +7 +7 1016.3 963.7 +7.9 +13.5
15 21.05 СЗ 3 15 км ясно +20.0 +8.5 47 +21 +28 комфорт 1014.5 962.6
18 21.05 СВ 4 15 км ясно +23.3 +10.3 44 +25 +31 комфорт 1011.0 959.4
21 21.05 СВ 2 9000 м мгла ясно +23.8 +13.1 51 +26 +26 жарко 1010.2 958.6
00 22.05 З 3 8000 м мгла ясно +17.0 +11.7 71 +17 +17 1012.2 960.1 +9.5 +24.8
03 22.05 З 3 12 км ясно +12.6 +10.4 86 +11 +11 1011.9 960.2
06 22.05 З 3 12 км ясно +12.4 +9.5 82 +11 +11 1011.0 959.7
09 22.05 СЗ 4 12 км ясно +12.9 +10.7 86 +11 +11 1009.5 958.4
12 22.05 штиль 0 10 км 9/0
[Cs]
+12.4 +10.5 88 +12 +13 1011.5 959.7 +11.0 +17.0
15 22.05 С 5 8000 м дым 9/0
[Ac As Cs]
+18.1 +12.0 68 +18 +21 1011.8 960.1
18 22.05 штиль 0 8000 м дым 9/0
[Ac As Cs]
+19.2 +13.0 67 +20 +27 1009.7 958.2
21 22.05 Ю 2 7000 м дым 9/3 1200 м
[Sc Ac As Cs]
+19.0 +14.3 74 +21 +21 комфорт 1009.7 958.2
00 23.05 Ю 2 5000 м дым 6/4 1350 м
[Sc Ac As]
+16.2 +13.4 83 +16 +16 1011.6 959.7 +12.4 +20.1
03 23.05 Ю 2 6000 м дым 9/9 1200 м
[Sc]
+15.2 +13.1 87 +15 +15 1012.3 960.8
06 23.05 З 2 12 км 10/10 1200 м
[Sc]
+15.2 +13.1 87 +15 +15 1012.2 960.8
09 23.05 З 2 12 км 10/10 1200 м
[Sc]
+15.0 +12.9 87 +15 +15 1011.6 960.2
12 23.05 штиль 0 8000 м 9/9 1500 м
[Sc]
+15.2 +13.8 91 +15 +15 1012.9 961.2 +14.6 +16.2
15 23.05 ЮВ 3 9000 м дымка 6/1 1050 м
[Cu hum Ac trans]
+19.3 +14.5 74 +21 +26 комфорт 1013.1 961.6
18 23.05 ЮВ 3 12 км 6/6 1050 м
[Cu Sc]
+21.1 +11.7 55 +23 +26 комфорт 1010.0 958.8
21 23.05 ЮВ 2 12 км 8/8 1050 м
[Cu Sc]
+21.2 +11.7 55 +23 +23 комфорт 1009.6 958.5
00 24.05 штиль 0 8000 м дым 8/5 1200 м
[Sc Ac As]
+17.6 +14.0 79 +18 +18 1010.9 959.4 +15.2 +22.5
03 24.05 СЗ 3 8000 м дымка 5/3 1200 м
[Sc Ac As]
+14.6 +12.5 87 +14 +14 1010.9 959.4

 

Местоположение метеостанции San Miguel de Tucuman (Аргентина): широта -26.85 долгота -65.09 высота над уровнем моря 450 м.

В архиве по умолчанию представлена погода в San Miguel de Tucuman за последнюю неделю. Архивные данные за месяц целиком и за предыдущие месяцы, начиная с января 2011 года, Вы можете получить, выбрав интересующий диапазон дат из раскрывающегося списка и нажав кнопку "Ввод!".

Внимание! Время в таблицах - всемирное. Для получения местного времени необходимо прибавить поправку, которая в San Miguel de Tucuman равна -3 ч.

Смотрите также архив погоды в соседних городах и на ближайших метеорологических станциях:

Погода в Santiago del Estero (Аргентина) (128 км)
Погода в San Fernando del Valle de Catamarca (Аргентина) (206 км)
Погода в Salta (Аргентина) (226 км)
Погода в San Salvador de Jujuy (Аргентина) (275 км)
Погода в La Rioja (Аргентина) (328 км)
Погода в Villa de Maria del Rio Seco (Аргентина) (366 км)
Погода в Chamical (Аргентина) (407 км)
Погода в San Ramon de la Nueva Oran (Аргентина) (419 км)
Погода в Ceres (Аргентина) (456 км)
Погода в Presidencia Roque Saenz Pena (Аргентина) (458 км)

Пояснения к столбцам:

Ветер - указаны скорость ветра в м/с - средняя за 10 мин, порывы в срок и между сроками (в фигурных скобках) и направление, откуда дует ветер: С - северный, СВ - северо-восточный, В - восточный, ЮВ - юго-восточный, Ю - южный, ЮЗ - юго-западный, З - западный, СЗ - северо-западный.
Видимость - горизонтальная дальность видимости в метрах или километрах. При видимости от 1 до 10 км при отсутствии осадков обычно наблюдается дымка, при ухудшении видимости до 1 км и менее - туман. В сухую погоду видимость может ухудшаться дымом, пылью или мглою.
Явления - указаны атмосферные явления, наблюдавшиеся в срок или в последний час перед сроком; фигурными скобками обозначены явления, наблюдавшиеся между сроками (за 1-3 часа до срока); квадратными скобками обозначены град или гололедные отложения с указанием их диаметра в мм.
Облачность - указаны через наклонную черту общая и нижняя облачность в баллах и высота нижней границы облаков в метрах; квадратными скобками обозначены формы облаков: Ci - перистые, Cs - перисто-слоистые, Cc - перисто-кучевые, Ac - высококучевые, As - высокослоистые, Sc - слоисто-кучевые, Ns - слоисто-дождевые, Cu - кучевые, Cb - кучево-дождевые. Подробнее классификацию облаков см. в Атласе облаков (PDF).
T - Температура воздуха - температура, измеренная на высоте 2 м над землей.
Td - Температура точки росы - температура, при понижении до которой содержащийся в воздухе водяной пар достигнет насыщения.
f - Относительная влажность воздуха - влажноcть воздуха, измеренная на высоте 2 м над землей.
Te - Эффективная температура - температура, которую ощущает одетый по сезону человек в тени. Характеристика душности погоды. При расчете учитывается влияние влажности воздуха и скорости ветра на теплоощущения человека.
Tes - Эффективная температура на солнце - температура, которую ощущает человек, с поправкой на солнечный нагрев. Характеристика знойности погоды. Зависит от высоты солнца над горизонтом, облачности и скорости ветра. Ночью, в пасмурную погоду, а также при ветре 12 м/с и более поправка равна нулю.
P - Атмосферное давление - приведенное к уровню моря атмосферное давление.
Po - Атмосферное давление - измеренное на уровне метеостанции атмосферное давление.
Tmin - Минимальная температура - минимум температуры воздуха на высоте 2 м над землей.
Tmax - Максимальная температура - максимум температуры воздуха на высоте 2 м над землей.
R - Количество осадков - Количество выпавших осадков за период времени, мм. При наведении курсора мыши на число - период времени, за который выпало указанное количество осадков.
R24 - Количество осадков - Количество выпавших осадков за 24 часа, мм.
S - Снежный покров - Высота снежного покрова, см. При наведении курсора мыши на число - состояние снежного покрова и степень покрытия местности в баллах.